Regional Weather Roundup
Issued by NWS

Home | Current Version | Previous Version | Text Only | Print | Product List | Glossary Off
Versions: 1 2 3 4 5 6 7 8 9 10 11 12 13 14 15 16 17 18 19 20 21 22 23 24 25 26 27 28

000
ASUS45 KSLC 110510
RWRUT

UTAH REGIONAL WEATHER ROUNDUP
NATIONAL WEATHER SERVICE SALT LAKE CITY UT
1000 PM MST SAT DEC 10 2016

UTZ001>011-023>025-110600-

NORTHERN UTAH

CITY           SKY/WX    TMP DP  RH WIND       PRES   REMARKS
BRIGHAM CITY     N/A     37  33  89 S6        29.91F WCI  32
HILL AFB       LGT SNOW  32  32  98 S6        29.91F FOG     WCI  27
LOGAN          CLOUDY    37  34  89 E6        29.87F WCI  32
OGDEN          LGT SNOW  33  32  96 S7        29.91F FOG     WCI  27
SALT LAKE CITY LGT RAIN  35  33  92 E5        29.94R WCI  31
WENDOVER       CLOUDY    37  36  93 CALM      29.92S
HEBER CITY     LGT SNOW  34  32  93 E6        29.86S WCI  29

$$

UTZ011>015-024>027-110600-

CENTRAL/NORTHEAST UTAH

CITY           SKY/WX    TMP DP  RH WIND       PRES   REMARKS
PROVO AIRPORT  LGT RAIN  35  33  92 NW20      29.91R WCI  24
MOAB/CANYONLAN MOCLDY    30  17  58 W12       29.92R WCI  20
DELTA          CLOUDY    41  36  81 N10       29.89R
PRICE          CLOUDY    30  22  72 CALM      29.90F
RICHFIELD      CLOUDY    52  32  46 SW16G24   29.87F
ROOSEVELT      CLOUDY    30  27  86 CALM      29.88S
VERNAL         LGT RAIN  33  31  92 CALM      29.86F

$$

UTZ013>016-019>022-027-110600-

SOUTHERN UTAH

CITY           SKY/WX    TMP DP  RH WIND       PRES   REMARKS
BRYCE CANYON   NOT AVBL
CEDAR CITY     CLOUDY    44  34  67 SW16G23   29.98R
MILFORD        CLOUDY    46  34  62 S31       29.93R
ST GEORGE      CLOUDY    48  34  57 CALM      30.04S
HANKSVILLE     PTCLDY    32  18  55 CALM      29.93R
KANAB          CLOUDY    45  36  70 CALM      30.09R
BLANDING       CLOUDY    33  25  73 CALM      30.07S

$$

REGIONAL REPORTS     COLORADO/ARIZONA

CITY           SKY/WX    TMP DP  RH WIND       PRES   REMARKS
CRAIG, CO      LGT SNOW  33  31  92 CALM      29.85R FOG
GRAND JUNCTION CLOUDY    30  25  81 CALM      29.91R
RIFLE, CO      CLOUDY    31  26  82 CALM      29.89F
MONTROSE, CO   CLOUDY    34  27  75 SE3       29.92F
CORTEZ, CO     CLOUDY    28  25  88 NE5       30.03S WCI  23
COLORADO CITY  CLOUDY    43  36  75 CALM      30.09R
PAGE, AZ       CLOUDY    42  25  50 W3        30.01F
GRAND CANYON   CLOUDY    38  35  89 CALM      30.13F
KINGMAN, AZ    CLOUDY    53  37  54 SE6       30.06R
FLAGSTAFF, AZ  CLOUDY    38  32  79 SW8       30.16R WCI  32

$$

REGIONAL REPORTS    NEVADA/IDAHO/WYOMING

CITY           SKY/WX    TMP DP  RH WIND       PRES   REMARKS
LAS VEGAS, NV  MOCLDY    51  24  34 S5        30.01R
ELY, NY        CLOUDY    43  32  65 S9        29.91S
ELKO, NV       CLOUDY    33  31  92 CALM      29.95R
POCATELLO, ID  CLOUDY    35  31  85 SW17      29.86R WCI  25
BURLEY, ID     CLOUDY    35  31  85 SW9       29.88R WCI  28
FORT BRIDGER,  SNOW      31  31 100 W10       29.90R VSB 1/2 WCI  22
EVANSTON, WY   LGT SNOW  30  27  88 SW10      29.87S VSB 3/4 WCI  21
ROCK SPRINGS,  LGT SNOW  30  28  93 W17G28    29.84R VSB 1   WCI  18
KEMMERER, WY   LGT SNOW  28  28 100 W16       29.84R VSB 3/4 WCI  17

$$




USA.gov is the U.S. government's official web portal to all federal, state and local government web resources and services.